Погода в Заинске

Россия / Республика Татарстан     55°17′56″N   52°00′23″E
темп.,
°C
ветер,
м/с
пор.,
м/с
влажн.,
%
обл.,
%
осадки,
мм/ч
давл.,
гПа
погр.,
м
16 сентября, чт
чт1600:00+6зсз497941 0.0 1006436
03:00+5зюз4108366 0.1 1007416
06:00+5з5118490 0.0 1007410
09:00+7сз7968100 0.1 10071305
12:00+7зсз785872 0.1 10091316
15:00+7зсз6862100 0.1 10101410
18:00+7зсз5966100 0.0 1010945
21:00+6сз5982100 0.0 1010805
17 сентября, пт
пт1700:00+7сз6983100 0.0 1011862
03:00+7сз5985100 0.1 1011665
06:00+6сз5986100 0.0 1012617
09:00+7сз5876100 0.1 1012794
12:00+10зсз6753100 0.2 10131540
15:00+9сз6750100 0.4 10131574
18:00+8зсз585659 0.1 1014430
21:00+3зсз227416 0.1 101436
18 сентября, сб
сб1800:00+3з238585 0.0 101586
03:00+4зсз4887100 0.1 1015603
06:00+4сз5990100 0.1 1015801
09:00+5сз5883100 0.4 10161089
12:00+7ссз8956100 0.3 10171687
15:00+6ссз6853100 0.3 10191583
18:00+6сз595695 0.0 1019712
21:00+3зсз5127215 0.0 1020389
19 сентября, вс
вс1900:00+3сз59825 0.0 1020639
03:000зсз410865 0.0 1021312
06:000зсз511815 0.0 1022348
09:00+5сз68595 0.0 1022809
12:00+9сз68455 0.0 10221468
15:00+10сз6741100 0.0 10221568
18:00+6сз225854 0.0 102314
21:00+3св347847 0.0 102584
20 сентября, пн
пн2000:00+2с1181100 0.0 102610
03:00+1ссз1183100 0.0 102710
06:00+2всв1178100 0.0 102736
09:00+6всв2258100 0.0 1028503
12:00+8всв2249100 0.0 1027855
15:00+10в2246100 0.0 1027979
18:00+7всв3657100 0.0 1027143
21:00+6в3761100 0.0 1028211